Location: Antioch Baptist Church
(32.6696°N, 85.7327°W)
Time: 21:16:56
(UTC+00:00)

COSMOS 2487 - Pass Details

Date: 14 July 2020
Orbit: 441 x 443 km, 74.7° (Epoch: 13 August)

Event Time Altitude Azimuth Distance (km) Brightness Sun altitude
Exits shadow 09:35:52 - 174° (S) 1,809 5.2 -13.3°
Reaches altitude 10° 09:36:31 10° 170° (S) 1,551 4.9 -13.2°
Maximum altitude 09:39:40 36° 102° (ESE) 712 3.8 -12.7°
Drops below altitude 10° 09:42:52 10° 34° (NE) 1,561 6.4 -12.2°
Sets 09:45:02 0° 26° (NNE) 2,434 7.3 -11.8°
